Canby, MN

10:36 PM CDT on April 27, 2017 (GMT -0500)
Canby

Weather History for KCNB - February, 2013

Change the Weather History Date:

Saturday, February 23, 2013

  Actual Average (KMML) Record (KMML)
Temperature  
Mean Temperature 12 °F -  
Max Temperature 23 °F 31 °F 57 °F (2002)
Min Temperature 0 °F 13 °F -11 °F (1993)
Degree Days  
Heating Degree Days 54    
Moisture  
Dew Point 7 °F    
Average Humidity 79    
Maximum Humidity 92    
Minimum Humidity 59    
Precipitation  
Precipitation 0.00 in - - ()
Sea Level Pressure  
Sea Level Pressure 29.88 in    
Wind  
Wind Speed 3 mph (South)    
Max Wind Speed 7 mph    
Max Gust Speed -    
Visibility 10 miles    
Events      
Averages and records for this station are not official NWS values.
T = Trace of Precipitation, MM = Missing Value Source: NWS Daily Summary

Daily Weather History Graph

Daily Weather History Graph

Search for Another Location

Airport or City:

Trip Planner

Search our weather history database for the weather conditions in past years. The results will help you decide how hot, cold, wet, or windy it might be!

Date:

Astronomy

Feb. 23, 2013 Rise Set
Actual Time 7:12 AM CST 6:05 PM CST
Civil Twilight 6:42 AM CST 6:34 PM CST
Nautical Twilight 6:08 AM CST 7:08 PM CST
Astronomical Twilight 5:35 AM CST 7:42 PM CST
Moon 4:14 PM CST (2/23) 5:38 AM CST (2/23)
Length of Visible Light 11h 51m
Length of Day
10h 52m
Waxing Gibbous, 95% of the Moon is Illuminated
Feb 23
Waxing Gibbous
Feb 25
Full
Mar 4
Last Quarter
Mar 11
New
Mar 19
First Quarter

Hourly Weather History & Observations

Time (CST) Temp. Windchill Dew Point Humidity Pressure Visibility Wind Dir Wind Speed Gust Speed Precip Events Conditions
12:16 AM 14.7 °F 9.0 °F 10.4 °F 83% 29.91 in 10.0 mi WNW 3.5 mph - N/A   Mostly Cloudy
12:36 AM 14.7 °F 5.9 °F 10.0 °F 82% 29.91 in 10.0 mi WNW 5.8 mph - N/A   Overcast
1:16 AM 13.6 °F 3.5 °F 9.1 °F 82% 29.91 in 10.0 mi West 6.9 mph - N/A   Scattered Clouds
1:36 AM 12.2 °F 2.9 °F 7.7 °F 82% 29.91 in 10.0 mi West 5.8 mph - N/A   Clear
1:56 AM 11.3 °F 1.9 °F 7.0 °F 83% 29.91 in 10.0 mi West 5.8 mph - N/A   Clear
2:16 AM 10.0 °F 0.4 °F 6.1 °F 84% 29.91 in 10.0 mi West 5.8 mph - N/A   Clear
2:36 AM 10.4 °F -0.4 °F 6.6 °F 85% 29.90 in 10.0 mi West 6.9 mph - N/A   Clear
2:56 AM 10.4 °F 2.2 °F 6.6 °F 85% 29.89 in 10.0 mi West 4.6 mph - N/A   Scattered Clouds
3:16 AM 12.7 °F 5.0 °F 9.0 °F 85% 29.89 in 10.0 mi West 4.6 mph - N/A   Overcast
3:36 AM 14.9 °F 7.5 °F 10.0 °F 81% 29.88 in 10.0 mi West 4.6 mph - N/A   Overcast
3:56 AM 15.4 °F 6.8 °F 10.4 °F 80% 29.88 in 10.0 mi West 5.8 mph - N/A   Overcast
4:16 AM 14.5 °F 8.8 °F 9.5 °F 80% 29.87 in 10.0 mi West 3.5 mph - N/A   Overcast
4:35 AM 12.7 °F - 8.1 °F 82% 29.87 in 10.0 mi Calm Calm - N/A   Mostly Cloudy
4:56 AM 11.3 °F 5.1 °F 7.0 °F 83% 29.87 in 10.0 mi West 3.5 mph - N/A   Scattered Clouds
5:16 AM 10.4 °F - 5.9 °F 82% 29.87 in 10.0 mi Calm Calm - N/A   Clear
5:35 AM 10.0 °F - 6.1 °F 84% 29.87 in 10.0 mi Calm Calm - N/A   Clear
5:56 AM 8.4 °F - 5.2 °F 87% 29.87 in 10.0 mi Calm Calm - N/A   Clear
6:16 AM 8.4 °F 1.8 °F 5.4 °F 87% 29.87 in 10.0 mi SW 3.5 mph - N/A   Clear
6:36 AM 4.8 °F - 1.9 °F 88% 29.87 in 10.0 mi Calm Calm - N/A   Clear
6:55 AM 4.1 °F - 1.4 °F 89% 29.87 in 10.0 mi Calm Calm - N/A   Clear
7:16 AM 4.6 °F -6.0 °F 2.1 °F 89% 29.87 in 10.0 mi SW 5.8 mph - N/A   Clear
7:36 AM 6.4 °F -2.4 °F 2.8 °F 85% 29.87 in 10.0 mi SW 4.6 mph - N/A   Clear
7:56 AM 7.7 °F -0.9 °F 3.7 °F 84% 29.87 in 10.0 mi WSW 4.6 mph - N/A   Clear
8:15 AM 9.5 °F 1.2 °F 5.0 °F 82% 29.86 in 10.0 mi WSW 4.6 mph - N/A   Clear
8:36 AM 11.1 °F 4.9 °F 5.9 °F 80% 29.86 in 10.0 mi SW 3.5 mph - N/A   Clear
8:56 AM 11.3 °F - 5.9 °F 79% 29.87 in 10.0 mi Calm Calm - N/A   Clear
9:16 AM 9.9 °F - 3.4 °F 75% 29.87 in 10.0 mi Calm Calm - N/A   Clear
10:15 AM 15.6 °F - 7.9 °F 72% 29.87 in 10.0 mi Calm Calm - N/A   Clear
10:36 AM 15.4 °F - 8.8 °F 75% 29.87 in 10.0 mi Calm Calm - N/A   Clear
10:55 AM 17.1 °F - 9.1 °F 71% 29.87 in 10.0 mi Calm Calm - N/A   Clear
11:16 AM 18.3 °F - 10.8 °F 72% 29.87 in 10.0 mi Calm Calm - N/A   Clear
11:36 AM 18.9 °F 13.7 °F 11.1 °F 72% 29.87 in 10.0 mi NE 3.5 mph - N/A   Clear
11:56 AM 19.8 °F - 11.7 °F 71% 29.87 in 10.0 mi Calm Calm - N/A   Clear
12:16 PM 22.5 °F 17.8 °F 11.3 °F 62% 29.87 in 10.0 mi East 3.5 mph - N/A   Clear
12:36 PM 22.5 °F 17.8 °F 12.2 °F 65% 29.86 in 10.0 mi East 3.5 mph - N/A   Clear
12:56 PM 22.1 °F 17.4 °F 11.5 °F 64% 29.86 in 10.0 mi ESE 3.5 mph - N/A   Clear
1:16 PM 22.5 °F 17.8 °F 11.7 °F 63% 29.86 in 10.0 mi SE 3.5 mph - N/A   Clear
1:36 PM 23.0 °F 17.0 °F 11.5 °F 61% 29.86 in 10.0 mi SE 4.6 mph - N/A   Clear
1:56 PM 23.5 °F 17.6 °F 11.1 °F 59% 29.85 in 10.0 mi SE 4.6 mph - N/A   Clear
2:16 PM 23.9 °F 18.0 °F 12.4 °F 62% 29.85 in 10.0 mi SE 4.6 mph - N/A   Clear
2:35 PM 23.7 °F 17.8 °F 12.7 °F 63% 29.85 in 10.0 mi ESE 4.6 mph - N/A   Clear
2:56 PM 23.9 °F 18.0 °F 12.9 °F 63% 29.85 in 10.0 mi SE 4.6 mph - N/A   Clear
3:16 PM 23.7 °F 19.3 °F 12.9 °F 63% 29.85 in 10.0 mi SE 3.5 mph - N/A   Clear
3:36 PM 23.9 °F 18.0 °F 13.1 °F 63% 29.85 in 10.0 mi SE 4.6 mph - N/A   Clear
3:56 PM 23.7 °F 19.3 °F 13.1 °F 64% 29.85 in 10.0 mi ESE 3.5 mph - N/A   Clear
4:16 PM 23.4 °F 18.9 °F 13.8 °F 67% 29.84 in 10.0 mi ESE 3.5 mph - N/A   Clear
4:36 PM 23.0 °F 17.0 °F 13.1 °F 66% 29.84 in 10.0 mi East 4.6 mph - N/A   Clear
4:56 PM 21.9 °F 17.2 °F 12.9 °F 68% 29.84 in 10.0 mi ESE 3.5 mph - N/A   Clear
5:16 PM 21.2 °F 16.4 °F 12.9 °F 70% 29.84 in 10.0 mi East 3.5 mph - N/A   Clear
5:36 PM 19.0 °F 13.9 °F 12.6 °F 76% 29.84 in 10.0 mi East 3.5 mph - N/A   Clear
5:55 PM 16.7 °F 9.6 °F 11.8 °F 81% 29.85 in 10.0 mi ESE 4.6 mph - N/A   Clear
6:16 PM 16.2 °F 10.6 °F 11.5 °F 82% 29.85 in 10.0 mi SE 3.5 mph - N/A   Clear
6:36 PM 15.8 °F 8.6 °F 10.9 °F 81% 29.86 in 10.0 mi SE 4.6 mph - N/A   Clear
6:55 PM 14.7 °F 9.0 °F 10.4 °F 83% 29.87 in 10.0 mi SSE 3.5 mph - N/A   Clear
7:16 PM 12.9 °F - 8.1 °F 81% 29.87 in 10.0 mi Calm Calm - N/A   Clear
7:36 PM 12.2 °F - 9.1 °F 88% 29.88 in 10.0 mi Calm Calm - N/A   Clear
7:56 PM 10.2 °F - 7.9 °F 90% 29.88 in 10.0 mi Calm Calm - N/A   Clear
8:16 PM 6.6 °F - 4.8 °F 92% 29.89 in 10.0 mi Calm Calm - N/A   Clear
8:35 PM 5.9 °F - 4.1 °F 92% 29.89 in 10.0 mi Calm Calm - N/A   Clear
8:56 PM 5.4 °F - 3.2 °F 91% 29.90 in 10.0 mi Calm Calm - N/A   Clear
9:16 PM 5.9 °F - 3.7 °F 91% 29.90 in 10.0 mi Calm Calm - N/A   Clear
9:36 PM 4.5 °F - 2.5 °F 91% 29.90 in 10.0 mi Calm Calm - N/A   Clear
9:56 PM 1.2 °F - -1.3 °F 89% 29.91 in 10.0 mi Calm Calm - N/A   Clear
10:15 PM 2.5 °F - -0.0 °F 89% 29.92 in 10.0 mi Calm Calm - N/A   Clear
10:36 PM 1.4 °F - -1.3 °F 88% 29.92 in 10.0 mi Calm Calm - N/A   Clear
10:56 PM -0.4 °F - -3.5 °F 87% 29.92 in 10.0 mi Calm Calm - N/A   Clear
11:16 PM 0.5 °F - -1.7 °F 91% 29.92 in 10.0 mi Calm Calm - N/A   Clear
11:36 PM -0.6 °F - -3.1 °F 89% 29.93 in 10.0 mi Calm Calm - N/A   Clear
11:55 PM -0.4 °F - -3.3 °F 88% 29.94 in 10.0 mi Calm Calm - N/A   Clear